Waarnemingen

Advertentie
Mijn weer
K14A, Nederland (6204): temperatuur & dauwpunt: 08.12.2018 16:00:00 - 14.12.2018 16:00:00 (CET)K14A, Nederland (6204): windsnelheid & windstoten: 08.12.2018 16:00:00 - 14.12.2018 16:00:00 (CET)K14A, Nederland (6204): windrichting: 08.12.2018 16:00:00 - 14.12.2018 16:00:00 (CET)K14A, Nederland (6204): luchtdruk: 08.12.2018 16:00:00 - 14.12.2018 16:00:00 (CET)K14A, Nederland (6204): zicht: 08.12.2018 16:00:00 - 14.12.2018 16:00:00 (CET)
Datum & Tijd tt [°C] td [°C] ff [km/u] ff [kn] fx [km/u] fx [kn] dd ppp [hPa] vv [km]
14.12.2018 16:00:00 - - - - - - - - -
14.12.2018 15:00:00 5,2 -4,8 37 20 40 21 OZO 1025,8 10
14.12.2018 14:00:00 5,2 -5,3 35 19 43 23 OZO 1025,7 10
14.12.2018 13:00:00 5,3 -4,7 37 20 47 25 OZO 1025,7 10
14.12.2018 12:00:00 5,4 -4,5 44 24 43 23 OZO 1025,5 10
14.12.2018 11:00:00 5,3 -3,9 44 24 50 27 OZO 1026,0 10
14.12.2018 10:00:00 5,3 -3,7 41 22 47 25 OZO 1025,6 10
14.12.2018 09:00:00 5,2 -3,0 39 21 43 23 OZO 1025,0 10
14.12.2018 08:00:00 5,3 -3,2 37 20 40 21 O 1025,0 10
14.12.2018 07:00:00 5,0 -0,8 31 17 36 19 O 1025,0 10
14.12.2018 06:00:00 5,1 -0,4 31 17 32 18 O 1024,5 10
14.12.2018 05:00:00 5,0 -0,1 26 14 32 18 O 1024,2 10
14.12.2018 04:00:00 5,1 0,3 29 16 40 21 OZO 1024,2 10
14.12.2018 03:00:00 5,3 0,2 29 16 32 18 O 1024,3 10
14.12.2018 02:00:00 5,0 0,4 24 13 29 16 O 1024,4 10
14.12.2018 01:00:00 4,8 0,0 26 14 29 16 O 1024,5 10
14.12.2018 00:00:00 4,7 -1,5 24 13 29 16 O 1024,5 10
13.12.2018 23:00:00 4,4 -0,7 29 16 32 18 O 1024,7 10
13.12.2018 22:00:00 4,6 0,1 34 18 36 19 O 1024,8 10
13.12.2018 21:00:00 4,7 -0,6 31 17 36 19 O 1024,4 10
13.12.2018 20:00:00 4,6 -0,7 35 19 40 21 O 1023,9 10
13.12.2018 19:00:00 4,7 -0,6 37 20 40 21 O 1023,6 10
13.12.2018 18:00:00 4,6 -0,5 41 22 43 23 O 1023,3 10
13.12.2018 17:00:00 4,7 0,0 41 22 43 23 O 1023,3 10
13.12.2018 16:00:00 4,4 0,5 42 23 47 25 O 1023,5 10
13.12.2018 15:00:00 4,5 0,5 42 23 43 23 O 1023,3 10
13.12.2018 14:00:00 4,7 0,6 44 24 47 25 O 1023,4 10
13.12.2018 13:00:00 4,9 1,0 46 25 47 25 O 1023,5 10
13.12.2018 12:00:00 5,0 1,4 46 25 50 27 OZO 1023,7 10
13.12.2018 11:00:00 4,8 1,0 48 26 50 27 OZO 1023,9 10
13.12.2018 10:00:00 4,6 0,5 50 27 50 27 OZO 1023,9 10
13.12.2018 09:00:00 5,0 1,2 44 24 47 25 OZO 1023,4 10
13.12.2018 08:00:00 4,8 1,2 42 23 43 23 OZO 1023,6 10
13.12.2018 07:00:00 5,1 0,4 36 19 43 23 OZO 1023,5 50
13.12.2018 06:00:00 5,3 0,8 44 24 47 25 OZO 1023,5 10
13.12.2018 05:00:00 5,5 1,1 44 24 47 25 OZO 1023,7 10
13.12.2018 04:00:00 5,4 1,5 44 24 47 25 OZO 1024,2 10
13.12.2018 03:00:00 5,7 0,4 48 26 50 27 OZO 1024,3 10
13.12.2018 02:00:00 6,0 0,5 46 25 50 27 OZO 1024,6 10
13.12.2018 01:00:00 6,2 -0,3 44 24 50 27 OZO 1025,0 10
13.12.2018 00:00:00 6,1 1,1 40 21 47 25 OZO 1025,2 50
12.12.2018 23:00:00 5,7 -0,4 42 23 50 27 OZO 1025,5 10
12.12.2018 22:00:00 5,6 -0,1 37 20 40 21 OZO 1025,9 10
12.12.2018 21:00:00 5,6 0,7 31 17 40 21 OZO 1026,2 10
12.12.2018 20:00:00 5,4 0,1 31 17 36 19 OZO 1026,1 10
12.12.2018 19:00:00 5,5 0,2 29 16 36 19 OZO 1025,9 10
12.12.2018 18:00:00 5,8 0,5 25 14 36 19 OZO 1026,1 49
12.12.2018 17:00:00 6,0 -0,5 28 15 32 18 OZO 1026,1 10
12.12.2018 16:00:00 6,0 -0,4 28 15 32 18 OZO 1026,2 10
12.12.2018 15:00:00 5,9 -0,5 29 16 36 19 OZO 1026,3 10
12.12.2018 14:00:00 6,2 0,2 31 17 32 18 OZO 1026,8 10
12.12.2018 13:00:00 6,6 1,9 34 18 36 19 OZO 1027,2 10
12.12.2018 12:00:00 7,0 2,7 34 18 36 19 OZO 1027,1 10
12.12.2018 11:00:00 7,6 2,2 24 13 32 18 OZO 1027,3 10
12.12.2018 10:00:00 7,5 1,8 24 13 29 16 ZO 1026,9 10
12.12.2018 09:00:00 7,7 1,6 24 13 25 14 OZO 1027,0 10
12.12.2018 08:00:00 7,9 1,5 18 10 22 12 O 1026,5 10
12.12.2018 07:00:00 8,2 2,3 9 5 18 10 O 1026,4 10
12.12.2018 06:00:00 7,9 2,5 5 3 7 4 NNO 1026,3 10
12.12.2018 05:00:00 7,8 1,4 2 1 11 6 O 1026,2 10
12.12.2018 04:00:00 7,8 1,6 8 4 14 8 NO 1026,3 10
12.12.2018 03:00:00 8,1 0,5 8 4 11 6 ONO 1026,1 10
12.12.2018 02:00:00 8,1 0,2 4 2 7 4 - 1025,7 10
12.12.2018 01:00:00 8,1 -0,2 5 3 7 4 OZO 1025,8 10
12.12.2018 00:00:00 8,2 0,0 5 3 11 6 O 1025,9 10
11.12.2018 23:00:00 8,1 0,0 13 7 14 8 NO 1025,9 10
11.12.2018 22:00:00 7,9 0,0 11 6 14 8 NO 1025,8 10
11.12.2018 21:00:00 7,9 0,0 13 7 18 10 NO 1025,7 10
11.12.2018 20:00:00 7,7 0,8 8 4 25 14 NNO 1025,6 10
11.12.2018 19:00:00 8,0 0,3 15 8 25 14 N 1025,5 10
11.12.2018 18:00:00 7,9 -0,3 21 11 29 16 N 1025,3 10
11.12.2018 17:00:00 8,2 1,0 15 8 25 14 N 1024,9 10
11.12.2018 16:00:00 8,1 -0,4 18 10 25 14 N 1025,0 43
11.12.2018 15:00:00 8,1 1,5 22 12 25 14 N 1024,6 10
11.12.2018 14:00:00 8,1 1,0 21 11 25 14 NW 1024,9 10
11.12.2018 13:00:00 7,8 1,7 22 12 25 14 NNW 1025,7 10
11.12.2018 12:00:00 7,7 1,5 26 14 32 18 NW 1025,6 10
11.12.2018 11:00:00 7,7 1,7 24 13 29 16 NNW 1025,4 10
11.12.2018 10:00:00 7,5 2,0 29 16 32 18 NNW 1025,7 10
11.12.2018 09:00:00 7,5 1,6 35 19 36 19 NNW 1025,6 10
11.12.2018 08:00:00 7,9 -0,1 29 16 36 19 NNW 1025,6 10
11.12.2018 07:00:00 7,3 2,6 28 15 36 19 NW 1025,4 10
11.12.2018 06:00:00 7,6 1,9 29 16 36 19 NW 1025,6 10
11.12.2018 05:00:00 7,5 2,4 37 20 40 21 NW 1025,2 10
11.12.2018 04:00:00 7,3 1,9 29 16 40 21 NW 1025,2 32
11.12.2018 03:00:00 7,8 0,5 32 18 43 23 NW 1025,2 46
11.12.2018 02:00:00 7,7 -0,5 41 22 43 23 NW 1025,0 10
11.12.2018 01:00:00 8,0 1,3 42 23 47 25 NW 1025,4 10
11.12.2018 00:00:00 8,0 2,1 41 22 40 21 NW 1025,5 10
10.12.2018 23:00:00 7,7 1,4 44 24 47 25 NW 1025,3 10
10.12.2018 22:00:00 7,8 1,2 50 27 50 27 NW 1025,1 10
10.12.2018 21:00:00 7,8 2,7 44 24 50 27 WNW 1025,4 10
10.12.2018 20:00:00 7,8 2,9 44 24 50 27 NW 1025,0 10
10.12.2018 19:00:00 8,3 2,2 50 27 54 29 NW 1024,8 10
10.12.2018 18:00:00 8,0 1,8 48 26 50 27 NW 1024,6 10
10.12.2018 17:00:00 7,8 1,1 54 29 54 29 NW 1024,3 10
10.12.2018 16:00:00 7,9 1,3 54 29 - - NW 1024,8 10
10.12.2018 15:00:00 7,6 1,9 50 27 54 29 NW 1024,2 10
10.12.2018 14:00:00 7,4 1,8 52 28 54 29 NW 1023,3 10
10.12.2018 13:00:00 7,8 0,6 52 28 54 29 NW 1023,2 10
10.12.2018 12:00:00 7,7 0,0 54 29 54 29 NW 1023,3 10
10.12.2018 11:00:00 7,6 2,3 55 30 61 33 NW 1022,4 10
10.12.2018 10:00:00 7,9 0,5 59 32 61 33 NW 1022,1 10
10.12.2018 09:00:00 6,5 1,7 63 34 68 37 NW 1022,0 10
10.12.2018 08:00:00 7,5 2,2 52 28 61 33 WNW 1020,7 10
10.12.2018 07:00:00 8,0 2,3 55 30 58 31 WNW 1020,1 10
10.12.2018 06:00:00 5,8 3,6 54 29 65 35 WNW 1019,4 10
10.12.2018 05:00:00 8,2 1,2 42 23 61 33 NW 1019,4 10
10.12.2018 04:00:00 8,4 2,8 48 26 61 33 WNW 1018,3 10
10.12.2018 03:00:00 8,2 2,5 55 30 68 37 NW 1018,1 10
10.12.2018 02:00:00 8,3 1,1 55 30 58 31 NW 1017,8 10
10.12.2018 01:00:00 7,3 1,4 52 28 68 37 WNW 1017,5 10
10.12.2018 00:00:00 7,5 3,4 50 27 68 37 NW 1016,6 10
09.12.2018 23:00:00 7,1 3,1 52 28 65 35 WNW 1015,9 10
09.12.2018 22:00:00 7,8 1,1 57 31 72 39 WNW 1015,0 10
09.12.2018 21:00:00 8,0 3,4 54 29 68 37 NW 1014,2 10
09.12.2018 20:00:00 8,6 1,9 63 34 65 35 NW 1012,9 10
09.12.2018 19:00:00 9,2 3,1 54 29 76 41 WNW 1011,3 10
09.12.2018 18:00:00 8,9 3,2 52 28 65 35 WNW 1010,1 10
09.12.2018 17:00:00 9,3 2,8 57 31 58 31 NW 1008,2 10
09.12.2018 16:00:00 9,4 2,4 59 32 58 31 NW 1006,8 10
09.12.2018 15:00:00 8,8 4,4 50 27 61 33 WNW 1004,5 10
09.12.2018 14:00:00 8,5 5,2 54 29 54 29 WNW 1003,5 10
09.12.2018 13:00:00 8,9 6,4 59 32 61 33 WNW 1002,1 10
09.12.2018 12:00:00 9,4 4,7 59 32 61 33 WNW 1000,6 10
09.12.2018 11:00:00 9,4 4,7 52 28 61 33 WNW 999,6 10
09.12.2018 10:00:00 9,5 5,5 50 27 54 29 WNW 998,3 10
09.12.2018 09:00:00 9,0 5,6 50 27 54 29 WNW 996,8 10
09.12.2018 08:00:00 9,8 4,6 55 30 54 29 WNW 995,5 10
09.12.2018 07:00:00 9,7 4,7 52 28 58 31 WNW 994,3 10
09.12.2018 06:00:00 8,8 7,0 54 29 61 33 WNW 993,4 10
09.12.2018 05:00:00 8,9 6,5 59 32 86 47 W 992,3 10
09.12.2018 04:00:00 10,0 6,7 80 43 86 47 W 991,1 10
09.12.2018 03:00:00 9,5 6,2 89 48 90 49 W 991,0 10
09.12.2018 02:00:00 9,9 6,2 83 45 90 49 W 991,0 10
09.12.2018 01:00:00 9,9 6,5 81 44 86 47 W 990,9 10
09.12.2018 00:00:00 9,8 6,6 76 41 86 47 W 990,7 10
08.12.2018 23:00:00 9,9 6,8 85 46 83 45 W 990,0 10
08.12.2018 22:00:00 10,1 6,7 81 44 90 49 W 990,0 10
08.12.2018 21:00:00 10,5 6,6 76 41 83 45 W 989,7 10
08.12.2018 20:00:00 11,3 8,5 74 40 79 43 WZW 990,0 10
08.12.2018 19:00:00 10,5 9,2 24 13 65 35 W 991,3 5
08.12.2018 18:00:00 9,7 7,9 57 31 68 37 ZW 993,6 -
08.12.2018 17:00:00 10,5 6,0 68 37 72 39 ZW 994,9 10
08.12.2018 16:00:00 10,4 4,6 72 39 83 45 WZW 996,4 10

tt = temperatuur
td = dauwpunt
ff = windsnelheid
fx = windstoten
dd = windrichting
ppp = luchtdruk
vv = zicht

Weerstations in de omgeving